tititudorancea.com
Ararat Weather - Ararat,Victoria,Australia
 
Daily Summary for April 24, 2014 Units:  Metric    English   Both
« Previous Day
Next Day »
Daily Weekly Monthly Yearly Custom
  Current: High: Low: Average:
Temperature: 14.4 °C 15.2 °C 9.3 °C 12.5 °C
Dew Point: 5.2 °C 12.1 °C 3.7 °C 7.7 °C
Humidity: 54% 98% 49% 74%
Wind Speed: 9.7km/h 20.9km/h 0km/h 8.4km/h
Wind Gust: 21.9km/h 42.8km/h - -
WindSSE - - WSW
Pressure: 1016.8 hPa 1016.8 hPa 1010 hPa -
Precipitation: 0.76 mm      
Historical Graphs
 
 
Ararat weather Find more about Weather in Ararat, AU


 




 


Tabular Data for April 24, 2014
Time Temperature Dew Point Pressure Wind Wind Speed Wind Gust Humidity Rainfall Rate (Hourly)
00:02 10.9 °C 6.8 °C 1011.7 hPa Calm   5 km/h 76% 0 mm
00:03 10.9 °C 6.8 °C 1011.7 hPa Calm   5 km/h 76% 0 mm
00:04 10.9 °C 6.8 °C 1011.4 hPa Calm   5 km/h 76% 0 mm
00:05 10.9 °C 6.8 °C 1011.7 hPa NNW 1.1 km/h 5 km/h 76% 0 mm
00:07 10.8 °C 6.7 °C 1011.7 hPa Calm   5 km/h 76% 0 mm
00:08 10.8 °C 6.7 °C 1011.7 hPa NNW 1.1 km/h 5 km/h 76% 0 mm
00:09 10.8 °C 6.7 °C 1011.7 hPa Calm   5 km/h 76% 0 mm
00:12 10.8 °C 6.7 °C 1011.7 hPa Calm   3.5 km/h 76% 0 mm
00:13 10.8 °C 6.7 °C 1011.7 hPa Calm   3.5 km/h 76% 0 mm
00:14 10.8 °C 6.7 °C 1011.7 hPa Calm   3.5 km/h 76% 0 mm
00:17 10.7 °C 6.6 °C 1011.4 hPa Calm   3.5 km/h 76% 0 mm
00:18 10.8 °C 6.7 °C 1011.4 hPa Calm   3.5 km/h 76% 0 mm
00:19 10.8 °C 6.7 °C 1011.4 hPa NW 1.1 km/h 3.5 km/h 76% 0 mm
00:20 10.7 °C 6.4 °C 1011.4 hPa NW 1.1 km/h 3.5 km/h 75% 0 mm
00:22 10.7 °C 6.4 °C 1011.4 hPa Calm   3.5 km/h 75% 0 mm
00:23 10.7 °C 6.4 °C 1011.4 hPa Calm   3.5 km/h 75% 0 mm
00:25 10.7 °C 6.4 °C 1011.4 hPa NNW 1.1 km/h 3.5 km/h 75% 0 mm
00:28 10.7 °C 6.6 °C 1011.4 hPa Calm   5 km/h 76% 0 mm
00:29 10.7 °C 6.6 °C 1011.4 hPa Calm   5 km/h 76% 0 mm
00:30 10.7 °C 6.6 °C 1011.4 hPa NNW 1.1 km/h 5 km/h 76% 0 mm
00:31 10.7 °C 6.6 °C 1011.4 hPa NNW 1.1 km/h 5 km/h 76% 0 mm
00:33 10.6 °C 6.6 °C 1011.4 hPa NNW 1.1 km/h 5 km/h 76% 0 mm
00:35 10.6 °C 6.6 °C 1011.4 hPa Calm   5 km/h 76% 0 mm
00:36 10.6 °C 6.6 °C 1011.4 hPa North 2.6 km/h 5 km/h 76% 0 mm
00:38 10.6 °C 6.6 °C 1011.4 hPa North 1.1 km/h 5 km/h 76% 0 mm
00:41 10.7 °C 6.6 °C 1011.4 hPa Calm   5 km/h 76% 0 mm
00:43 10.6 °C 6.6 °C 1011.7 hPa North 2.6 km/h 5 km/h 76% 0 mm
00:44 10.6 °C 6.6 °C 1011.7 hPa NNE 2.6 km/h 5 km/h 76% 0 mm
00:46 10.6 °C 6.6 °C 1011.7 hPa North 1.1 km/h 5 km/h 76% 0 mm
00:47 10.6 °C 6.6 °C 1011.4 hPa North 1.1 km/h 5 km/h 76% 0 mm
00:48 10.6 °C 6.6 °C 1011.1 hPa North 1.1 km/h 5 km/h 76% 0 mm
00:50 10.6 °C 6.6 °C 1011.1 hPa Calm   5 km/h 76% 0 mm
00:51 10.6 °C 6.6 °C 1011.4 hPa North 1.1 km/h 5 km/h 76% 0 mm
00:52 10.6 °C 6.6 °C 1011.4 hPa North 1.1 km/h 5 km/h 76% 0 mm
00:53 10.6 °C 6.6 °C 1011.1 hPa North 1.1 km/h 5 km/h 76% 0 mm
00:55 10.6 °C 6.6 °C 1011.4 hPa North 2.6 km/h 5 km/h 76% 0 mm
00:56 10.6 °C 6.6 °C 1011.4 hPa NNW 1.1 km/h 5 km/h 76% 0 mm
00:58 10.6 °C 6.6 °C 1011.4 hPa NNW 2.6 km/h 6.1 km/h 76% 0 mm
00:59 10.6 °C 6.6 °C 1011.4 hPa NNW 2.6 km/h 7.2 km/h 76% 0 mm
01:00 10.5 °C 6.4 °C 1011.4 hPa NNW 1.1 km/h 7.2 km/h 76% 0 mm
01:01 10.5 °C 6.4 °C 1011.4 hPa NNW 1.1 km/h 7.2 km/h 76% 0 mm
01:02 10.5 °C 6.4 °C 1011.4 hPa NNW 1.1 km/h 7.2 km/h 76% 0 mm
01:04 10.5 °C 6.4 °C 1011.4 hPa NNW 2.6 km/h 7.2 km/h 76% 0 mm
01:05 10.4 °C 6.3 °C 1011.4 hPa NNW 2.6 km/h 7.2 km/h 76% 0 mm
01:07 10.4 °C 6.3 °C 1011.4 hPa NNW 1.1 km/h 7.2 km/h 76% 0 mm
01:09 10.4 °C 6.3 °C 1011.4 hPa NNW 2.6 km/h 6.1 km/h 76% 0 mm
01:12 10.3 °C 6.2 °C 1011.1 hPa NW 1.1 km/h 6.1 km/h 76% 0 mm
01:15 10.2 °C 6.2 °C 1011.4 hPa NNW 1.1 km/h 6.1 km/h 76% 0 mm
01:16 10.2 °C 6.2 °C 1011.4 hPa NW 1.1 km/h 6.1 km/h 76% 0 mm
01:17 10.2 °C 6.2 °C 1011.1 hPa NW 1.1 km/h 5 km/h 76% 0 mm
01:18 10.2 °C 6.2 °C 1011.4 hPa NW 1.1 km/h 5 km/h 76% 0 mm
01:20 10.1 °C 6.1 °C 1011.4 hPa NW 2.6 km/h 5 km/h 76% 0 mm
01:21 10.1 °C 6.1 °C 1011.4 hPa NW 1.1 km/h 5 km/h 76% 0 mm
01:23 10.1 °C 6.1 °C 1011.1 hPa NNW 2.6 km/h 5 km/h 76% 0 mm
01:25 10 °C 5.9 °C 1011.4 hPa NNW 2.6 km/h 5 km/h 76% 0 mm
01:26 10 °C 5.9 °C 1011.4 hPa NNW 2.6 km/h 5 km/h 76% 0 mm
01:27 10 °C 5.9 °C 1011.4 hPa NNW 2.6 km/h 5 km/h 76% 0 mm
01:28 10 °C 5.9 °C 1011.4 hPa NNW 1.1 km/h 5 km/h 76% 0 mm
01:29 9.9 °C 5.9 °C 1011.4 hPa NNW 1.1 km/h 5 km/h 76% 0 mm
01:30 9.9 °C 5.9 °C 1011.1 hPa NNW 1.1 km/h 5 km/h 76% 0 mm
01:31 9.9 °C 5.9 °C 1011.1 hPa NNW 2.6 km/h 6.1 km/h 76% 0 mm
01:33 9.9 °C 5.9 °C 1011.1 hPa NNW 1.1 km/h 6.1 km/h 76% 0 mm
01:34 9.9 °C 6.1 °C 1011.4 hPa NNW 1.1 km/h 6.1 km/h 77% 0 mm
01:36 9.8 °C 5.9 °C 1011.1 hPa North 1.1 km/h 6.1 km/h 77% 0 mm
01:38 9.8 °C 5.9 °C 1011.4 hPa North 2.6 km/h 6.1 km/h 77% 0 mm
01:39 9.8 °C 5.9 °C 1011.1 hPa North 1.1 km/h 6.1 km/h 77% 0 mm
01:42 9.8 °C 5.9 °C 1011.1 hPa North 1.1 km/h 5 km/h 77% 0 mm
01:43 9.8 °C 5.9 °C 1011.4 hPa North 1.1 km/h 5 km/h 77% 0 mm
01:44 9.8 °C 5.9 °C 1011.4 hPa North 1.1 km/h 5 km/h 77% 0 mm
01:46 9.8 °C 5.9 °C 1011.4 hPa North 3.5 km/h 7.2 km/h 77% 0 mm
01:48 9.8 °C 5.9 °C 1011.4 hPa NNW 2.6 km/h 7.2 km/h 77% 0 mm
01:49 9.8 °C 5.9 °C 1011.4 hPa NNW 2.6 km/h 7.2 km/h 77% 0 mm
01:50 9.7 °C 5.9 °C 1011.1 hPa NNW 1.1 km/h 7.2 km/h 77% 0 mm
01:51 9.7 °C 5.9 °C 1011.4 hPa NNW 2.6 km/h 7.2 km/h 77% 0 mm
01:53 9.7 °C 5.9 °C 1011.4 hPa NNW 2.6 km/h 7.2 km/h 77% 0 mm
01:54 9.7 °C 5.9 °C 1011.4 hPa NNW 1.1 km/h 7.2 km/h 77% 0 mm
01:55 9.7 °C 5.9 °C 1011.4 hPa NNW 1.1 km/h 7.2 km/h 77% 0 mm
01:56 9.7 °C 5.9 °C 1011.4 hPa NNW 1.1 km/h 7.2 km/h 77% 0 mm
01:57 9.7 °C 5.9 °C 1011.4 hPa NNW 2.6 km/h 7.2 km/h 77% 0 mm
01:58 9.7 °C 6.1 °C 1011.1 hPa North 1.1 km/h 6.1 km/h 78% 0 mm
01:59 9.7 °C 5.9 °C 1011.1 hPa North 2.6 km/h 6.1 km/h 77% 0 mm
02:00 9.7 °C 5.9 °C 1011.1 hPa North 1.1 km/h 6.1 km/h 77% 0 mm
02:01 9.7 °C 5.9 °C 1011.4 hPa North 1.1 km/h 6.1 km/h 77% 0 mm
02:02 9.7 °C 5.9 °C 1011.1 hPa North 1.1 km/h 5 km/h 77% 0 mm
02:04 9.7 °C 5.9 °C 1011.1 hPa NNE 2.6 km/h 5 km/h 77% 0 mm
02:05 9.7 °C 5.9 °C 1011.4 hPa NNE 1.1 km/h 5 km/h 77% 0 mm
02:06 9.7 °C 6.1 °C 1011.1 hPa Calm   5 km/h 78% 0 mm
02:07 9.7 °C 6.1 °C 1011.4 hPa NNE 1.1 km/h 5 km/h 78% 0 mm
02:09 9.7 °C 6.1 °C 1011.4 hPa North 1.1 km/h 5 km/h 78% 0 mm
02:10 9.7 °C 5.9 °C 1011.1 hPa North 1.1 km/h 5 km/h 77% 0 mm
02:11 9.7 °C 5.9 °C 1011.1 hPa NNE 1.1 km/h 5 km/h 77% 0 mm
02:12 9.7 °C 5.9 °C 1011.1 hPa NNE 1.1 km/h 5 km/h 77% 0 mm
02:14 9.6 °C 5.8 °C 1011.4 hPa North 1.1 km/h 5 km/h 77% 0 mm
02:16 9.6 °C 5.8 °C 1011.1 hPa NNW 1.1 km/h 5 km/h 77% 0 mm
02:17 9.5 °C 5.7 °C 1011.1 hPa NNW 1.1 km/h 5 km/h 77% 0 mm
02:18 9.5 °C 5.7 °C 1011.1 hPa NNW 1.1 km/h 3.5 km/h 77% 0 mm
02:19 9.5 °C 5.7 °C 1011.1 hPa NNW 1.1 km/h 3.5 km/h 77% 0 mm
02:21 9.4 °C 5.8 °C 1011.1 hPa NW 1.1 km/h 3.5 km/h 78% 0 mm
02:22 9.4 °C 5.8 °C 1011.1 hPa NW 1.1 km/h 3.5 km/h 78% 0 mm
02:23 9.4 °C 5.8 °C 1011.1 hPa NW 1.1 km/h 3.5 km/h 78% 0 mm
02:24 9.4 °C 5.8 °C 1011.1 hPa Calm   3.5 km/h 78% 0 mm
02:27 9.3 °C 5.7 °C 1011.1 hPa Calm   3.5 km/h 78% 0 mm
02:28 9.3 °C 5.7 °C 1011.1 hPa Calm   3.5 km/h 78% 0 mm
02:29 9.3 °C 5.7 °C 1011.1 hPa Calm   3.5 km/h 78% 0 mm
02:33 9.3 °C 5.7 °C 1011.1 hPa Calm   3.5 km/h 78% 0 mm
02:34 9.3 °C 5.8 °C 1011.1 hPa NNW 1.1 km/h 3.5 km/h 79% 0 mm
02:35 9.3 °C 5.8 °C 1011.1 hPa NNW 1.1 km/h 3.5 km/h 79% 0 mm
02:38 9.4 °C 5.9 °C 1011.4 hPa North 1.1 km/h 5 km/h 79% 0 mm
02:39 9.4 °C 5.9 °C 1011.4 hPa North 1.1 km/h 5 km/h 79% 0 mm
02:40 9.4 °C 5.9 °C 1011.1 hPa North 1.1 km/h 5 km/h 79% 0 mm
02:43 9.4 °C 5.9 °C 1011.1 hPa Calm   6.1 km/h 79% 0 mm
02:44 9.5 °C 6.1 °C 1011.1 hPa North 2.6 km/h 6.1 km/h 79% 0 mm
02:45 9.5 °C 6.1 °C 1011.1 hPa NNW 2.6 km/h 6.1 km/h 79% 0 mm
02:46 9.5 °C 6.1 °C 1011.1 hPa North 1.1 km/h 6.1 km/h 79% 0 mm
02:49 9.6 °C 6.2 °C 1011.1 hPa North 1.1 km/h 6.1 km/h 79% 0 mm
02:50 9.7 °C 6.2 °C 1010.7 hPa North 2.6 km/h 6.1 km/h 79% 0 mm
02:51 9.7 °C 6.2 °C 1011.1 hPa North 3.5 km/h 6.1 km/h 79% 0 mm
02:52 9.7 °C 6.4 °C 1010.7 hPa North 2.6 km/h 6.1 km/h 80% 0 mm
02:55 9.8 °C 6.5 °C 1010.7 hPa NE 1.1 km/h 6.1 km/h 80% 0 mm
02:56 9.8 °C 6.3 °C 1011.1 hPa NE 1.1 km/h 6.1 km/h 79% 0 mm
02:58 9.9 °C 6.4 °C 1010.7 hPa Calm   6.1 km/h 79% 0 mm
03:00 9.9 °C 6.4 °C 1010.7 hPa ENE 1.1 km/h 5 km/h 79% 0 mm
03:01 9.9 °C 6.4 °C 1010.7 hPa ENE 2.6 km/h 5 km/h 79% 0 mm
03:02 9.9 °C 6.4 °C 1010.7 hPa ENE 3.5 km/h 6.1 km/h 79% 0 mm
03:03 9.9 °C 6.2 °C 1010.7 hPa ENE 2.6 km/h 6.1 km/h 78% 0 mm
03:05 9.9 °C 6.2 °C 1010.7 hPa East 1.1 km/h 6.1 km/h 78% 0 mm
03:06 9.9 °C 6.2 °C 1010.7 hPa East 1.1 km/h 6.1 km/h 78% 0 mm
03:07 9.9 °C 6.2 °C 1010.7 hPa East 1.1 km/h 6.1 km/h 78% 0 mm
03:08 9.9 °C 6.2 °C 1010.7 hPa East 1.1 km/h 6.1 km/h 78% 0 mm
03:10 9.9 °C 6.2 °C 1010.7 hPa East 3.5 km/h 6.1 km/h 78% 0 mm
03:11 9.9 °C 6.2 °C 1010.7 hPa East 2.6 km/h 6.1 km/h 78% 0 mm
03:12 10 °C 6.3 °C 1010.7 hPa East 3.5 km/h 6.1 km/h 78% 0 mm
03:13 10 °C 6.3 °C 1010.7 hPa East 3.5 km/h 6.1 km/h 78% 0 mm
03:14 10 °C 6.3 °C 1010.7 hPa East 3.5 km/h 6.1 km/h 78% 0 mm
03:16 10 °C 6.3 °C 1010.7 hPa East 1.1 km/h 6.1 km/h 78% 0 mm
03:17 10 °C 6.5 °C 1010.4 hPa East 3.5 km/h 6.1 km/h 79% 0 mm
03:19 10.1 °C 6.6 °C 1010.7 hPa ENE 1.1 km/h 6.1 km/h 79% 0 mm
03:21 10.2 °C 6.7 °C 1010.4 hPa ENE 2.6 km/h 6.1 km/h 79% 0 mm
03:22 10.2 °C 6.7 °C 1010.7 hPa Calm   6.1 km/h 79% 0 mm
03:23 10.2 °C 6.7 °C 1010.7 hPa Calm   6.1 km/h 79% 0 mm
03:24 10.3 °C 6.8 °C 1010.7 hPa Calm   6.1 km/h 79% 0 mm
03:26 10.3 °C 6.8 °C 1010.4 hPa NNE 1.1 km/h 6.1 km/h 79% 0 mm
03:28 10.4 °C 6.9 °C 1010.7 hPa NNE 2.6 km/h 6.1 km/h 79% 0 mm
03:29 10.4 °C 6.9 °C 1010.7 hPa NE 2.6 km/h 7.2 km/h 79% 0 mm
03:31 10.4 °C 6.9 °C 1010.7 hPa NE 3.5 km/h 7.2 km/h 79% 0 mm
03:32 10.5 °C 7 °C 1010.7 hPa NE 2.6 km/h 7.2 km/h 79% 0 mm
03:33 10.5 °C 6.8 °C 1010.7 hPa NE 2.6 km/h 7.2 km/h 78% 0 mm
03:35 10.6 °C 6.9 °C 1010.7 hPa Calm   7.2 km/h 78% 0 mm
03:36 10.6 °C 7.1 °C 1010.7 hPa ENE 2.6 km/h 7.2 km/h 79% 0 mm
03:38 10.6 °C 7.1 °C 1010.4 hPa NE 3.5 km/h 7.2 km/h 79% 0 mm
03:39 10.7 °C 7.2 °C 1010.7 hPa NE 5 km/h 8.7 km/h 79% 0 mm
03:40 10.7 °C 7.2 °C 1010.7 hPa NE 2.6 km/h 9.7 km/h 79% 0 mm
03:41 10.7 °C 7.4 °C 1010.7 hPa NE 6.1 km/h 12.2 km/h 80% 0 mm
03:43 10.9 °C 7.7 °C 1010.7 hPa NNE 5 km/h 13.4 km/h 81% 0 mm
03:44 10.9 °C 7.7 °C 1010.7 hPa NNE 5 km/h 13.4 km/h 81% 0 mm
03:46 11.3 °C 8.7 °C 1010.4 hPa North 11.1 km/h 18.3 km/h 84% 0 mm
03:48 11.4 °C 9.1 °C 1010.7 hPa NNW 8.7 km/h 18.3 km/h 85% 0 mm
03:49 11.6 °C 9.1 °C 1010.4 hPa NNW 9.7 km/h 18.3 km/h 85% 0 mm
03:51 11.8 °C 9.5 °C 1010.7 hPa NNW 8.7 km/h 25.6 km/h 86% 0 mm
03:52 11.8 °C 9.5 °C 1010.7 hPa NNW 8.7 km/h 25.6 km/h 86% 0 mm
03:54 11.9 °C 9.7 °C 1010.7 hPa NNW 9.7 km/h 25.6 km/h 86% 0 mm
03:55 12.1 °C 9.8 °C 1010.7 hPa NNW 6.1 km/h 25.6 km/h 86% 0 mm
03:56 12.1 °C 9.8 °C 1010.7 hPa NNW 8.7 km/h 25.6 km/h 86% 0 mm
03:58 12.2 °C 9.9 °C 1010.4 hPa NNW 11.1 km/h 25.6 km/h 86% 0 mm
03:59 12.2 °C 9.9 °C 1010.7 hPa NNW 11.1 km/h 25.6 km/h 86% 0 mm
04:00 12.2 °C 10 °C 1010.4 hPa NNW 7.2 km/h 24.5 km/h 86% 0 mm
04:03 12.2 °C 10 °C 1010.7 hPa North 8.7 km/h 24.5 km/h 86% 0 mm
04:04 12.2 °C 10 °C 1010.4 hPa North 9.7 km/h 24.5 km/h 86% 0 mm
04:06 12.2 °C 10 °C 1010.7 hPa NNW 7.2 km/h 24.5 km/h 86% 0 mm
04:08 12.2 °C 10 °C 1010.4 hPa NNW 8.7 km/h 24.5 km/h 86% 0 mm
04:09 12.2 °C 10 °C 1010.4 hPa NW 12.2 km/h 23.3 km/h 86% 0 mm
04:10 12.2 °C 10 °C 1010.4 hPa NW 9.7 km/h 23.3 km/h 86% 0 mm
04:11 12.2 °C 10 °C 1010.4 hPa NW 9.7 km/h 23.3 km/h 86% 0 mm
04:13 12.2 °C 10 °C 1010.4 hPa NW 9.7 km/h 23.3 km/h 86% 0 mm
04:14 12.3 °C 10.1 °C 1010.4 hPa NW 11.1 km/h 23.3 km/h 86% 0 mm
04:15 12.3 °C 10.1 °C 1010.4 hPa NW 11.1 km/h 23.3 km/h 86% 0 mm
04:18 12.2 °C 10 °C 1010.4 hPa NW 13.4 km/h 21.9 km/h 86% 0 mm
04:20 12.2 °C 10.2 °C 1010.4 hPa NW 9.7 km/h 30.6 km/h 87% 0 mm
04:23 12.2 °C 10.2 °C 1010 hPa NNW 9.7 km/h 30.6 km/h 87% 0 mm
04:25 12.3 °C 10.2 °C 1010.4 hPa NNW 14.8 km/h 30.6 km/h 87% 0 mm
04:26 12.3 °C 10.2 °C 1010.4 hPa NW 11.1 km/h 30.6 km/h 87% 0 mm
04:28 12.2 °C 10.2 °C 1010.4 hPa NW 11.1 km/h 30.6 km/h 87% 0 mm
04:29 12.3 °C 10.2 °C 1010.7 hPa NW 11.1 km/h 30.6 km/h 87% 0 mm
04:30 12.2 °C 10.2 °C 1010.4 hPa NW 12.2 km/h 25.6 km/h 87% 0 mm
04:31 12.2 °C 10.2 °C 1010.7 hPa NW 9.7 km/h 25.6 km/h 87% 0 mm
04:33 12.2 °C 10.2 °C 1010.4 hPa NW 13.4 km/h 25.6 km/h 87% 0 mm
04:34 12.2 °C 10.2 °C 1010.7 hPa NW 11.1 km/h 24.5 km/h 87% 0 mm
04:35 12.2 °C 10.2 °C 1010.7 hPa NW 9.7 km/h 24.5 km/h 87% 0 mm
04:36 12.2 °C 10.2 °C 1010.7 hPa NW 9.7 km/h 21.9 km/h 87% 0 mm
04:37 12.2 °C 10.3 °C 1010.4 hPa NW 12.2 km/h 21.9 km/h 88% 0 mm
04:39 12.2 °C 10.3 °C 1010.7 hPa NW 9.7 km/h 24.5 km/h 88% 0 mm
04:40 12.2 °C 10.3 °C 1010.7 hPa NW 8.7 km/h 24.5 km/h 88% 0 mm
04:41 12.2 °C 10.3 °C 1010.7 hPa NW 12.2 km/h 24.5 km/h 88% 0 mm
04:42 12.2 °C 10.3 °C 1010.7 hPa NW 12.2 km/h 24.5 km/h 88% 0 mm
04:43 12.2 °C 10.3 °C 1010.7 hPa NW 11.1 km/h 24.5 km/h 88% 0 mm
04:44 12.2 °C 10.2 °C 1010.4 hPa NNW 8.7 km/h 24.5 km/h 87% 0 mm
04:46 12.2 °C 10.3 °C 1010.7 hPa NNW 12.2 km/h 24.5 km/h 88% 0 mm
04:47 12.2 °C 10.3 °C 1010.4 hPa NNW 9.7 km/h 24.5 km/h 88% 0 mm
04:48 12.2 °C 10.3 °C 1010.7 hPa NNW 9.7 km/h 24.5 km/h 88% 0 mm
04:49 12.2 °C 10.3 °C 1010.7 hPa NW 11.1 km/h 25.6 km/h 88% 0 mm
04:51 12.2 °C 10.3 °C 1010.7 hPa NW 13.4 km/h 25.6 km/h 88% 0 mm
04:53 12.2 °C 10.3 °C 1010.7 hPa NW 9.7 km/h 25.6 km/h 88% 0 mm
04:54 12.2 °C 10.3 °C 1010.7 hPa NW 11.1 km/h 25.6 km/h 88% 0 mm
04:55 12.2 °C 10.3 °C 1010.4 hPa NW 11.1 km/h 25.6 km/h 88% 0 mm
04:57 12.2 °C 10.3 °C 1010.7 hPa NW 13.4 km/h 25.6 km/h 88% 0 mm
04:58 12.2 °C 10.3 °C 1010.7 hPa NW 9.7 km/h 25.6 km/h 88% 0 mm
04:59 12.2 °C 10.3 °C 1010.7 hPa NW 12.2 km/h 28 km/h 88% 0 mm
05:00 12.2 °C 10.3 °C 1010.7 hPa NW 14.8 km/h 28 km/h 88% 0 mm
05:02 12.2 °C 10.3 °C 1010.7 hPa NW 11.1 km/h 28 km/h 88% 0 mm
05:04 12.2 °C 10.3 °C 1010.7 hPa NW 8.7 km/h 28 km/h 88% 0 mm
05:05 12.2 °C 10.3 °C 1010.7 hPa NW 11.1 km/h 28 km/h 88% 0 mm
05:07 12.2 °C 10.3 °C 1010.7 hPa NW 11.1 km/h 28 km/h 88% 0 mm
05:09 12.2 °C 10.3 °C 1010.7 hPa NW 9.7 km/h 20.9 km/h 88% 0 mm
05:10 12.2 °C 10.3 °C 1010.7 hPa NW 9.7 km/h 20.9 km/h 88% 0 mm
05:11 12.2 °C 10.3 °C 1010.7 hPa NW 13.4 km/h 20.9 km/h 88% 0 mm
05:12 12.2 °C 10.3 °C 1011.1 hPa NW 12.2 km/h 20.9 km/h 88% 0 mm
05:13 12.2 °C 10.3 °C 1010.7 hPa NW 9.7 km/h 20.9 km/h 88% 0 mm
05:14 12.2 °C 10.3 °C 1011.1 hPa NNW 12.2 km/h 20.9 km/h 88% 0 mm
05:15 12.2 °C 10.3 °C 1011.1 hPa NNW 12.2 km/h 20.9 km/h 88% 0 mm
05:16 12.2 °C 10.3 °C 1011.1 hPa NNW 7.2 km/h 20.9 km/h 88% 0 mm
05:17 12.2 °C 10.3 °C 1010.7 hPa NW 8.7 km/h 20.9 km/h 88% 0 mm
05:18 12.2 °C 10.3 °C 1010.7 hPa NW 9.7 km/h 21.9 km/h 88% 0 mm
05:20 12.2 °C 10.3 °C 1011.1 hPa NW 7.2 km/h 21.9 km/h 88% 0 mm
05:21 12.2 °C 10.3 °C 1010.7 hPa NW 11.1 km/h 21.9 km/h 88% 0 mm
05:22 12.2 °C 10.3 °C 1010.7 hPa NW 9.7 km/h 21.9 km/h 88% 0 mm
05:23 12.2 °C 10.3 °C 1010.7 hPa NW 9.7 km/h 21.9 km/h 88% 0 mm
05:25 12.2 °C 10.3 °C 1011.1 hPa NW 13.4 km/h 21.9 km/h 88% 0 mm
05:27 12.2 °C 10.3 °C 1010.7 hPa NW 11.1 km/h 21.9 km/h 88% 0 mm
05:28 12.2 °C 10.3 °C 1011.1 hPa NW 14.8 km/h 21.9 km/h 88% 0 mm
05:29 12.3 °C 10.4 °C 1011.1 hPa NW 7.2 km/h 21.9 km/h 88% 0 mm
05:30 12.3 °C 10.4 °C 1011.1 hPa NW 12.2 km/h 21.9 km/h 88% 0 mm
05:32 12.3 °C 10.4 °C 1011.1 hPa NW 9.7 km/h 21.9 km/h 88% 0 mm
05:33 12.3 °C 10.4 °C 1011.1 hPa NW 9.7 km/h 21.9 km/h 88% 0 mm
05:34 12.3 °C 10.4 °C 1011.1 hPa NW 6.1 km/h 21.9 km/h 88% 0 mm
05:36 12.3 °C 10.4 °C 1011.1 hPa NW 7.2 km/h 20.9 km/h 88% 0 mm
05:38 12.3 °C 10.4 °C 1011.4 hPa NW 8.7 km/h 19.5 km/h 88% 0 mm
05:39 12.3 °C 10.4 °C 1011.4 hPa NW 7.2 km/h 19.5 km/h 88% 0 mm
05:40 12.3 °C 10.4 °C 1011.1 hPa NW 6.1 km/h 19.5 km/h 88% 0 mm
05:41 12.3 °C 10.4 °C 1011.4 hPa NW 11.1 km/h 19.5 km/h 88% 0 mm
05:44 12.3 °C 10.4 °C 1011.1 hPa NW 7.2 km/h 17.2 km/h 88% 0 mm
05:45 12.3 °C 10.4 °C 1011.1 hPa NW 7.2 km/h 17.2 km/h 88% 0 mm
05:46 12.3 °C 10.4 °C 1011.4 hPa NW 6.1 km/h 17.2 km/h 88% 0 mm
05:49 12.4 °C 10.5 °C 1011.1 hPa NNW 6.1 km/h 17.2 km/h 88% 0 mm
05:50 12.4 °C 10.5 °C 1011.4 hPa NNW 5 km/h 17.2 km/h 88% 0 mm
05:51 12.4 °C 10.5 °C 1011.1 hPa NNW 3.5 km/h 17.2 km/h 88% 0 mm
05:54 12.4 °C 10.5 °C 1011.4 hPa NNW 3.5 km/h 12.2 km/h 88% 0 mm
05:55 12.6 °C 10.6 °C 1011.1 hPa NNW 6.1 km/h 12.2 km/h 88% 0 mm
05:56 12.6 °C 10.6 °C 1011.4 hPa NNW 3.5 km/h 12.2 km/h 88% 0 mm
05:57 12.6 °C 10.6 °C 1011.1 hPa NNW 5 km/h 12.2 km/h 88% 0 mm
06:00 12.6 °C 10.6 °C 1011.1 hPa NNW 7.2 km/h 13.4 km/h 88% 0 mm
06:01 12.6 °C 10.6 °C 1011.4 hPa North 9.7 km/h 17.2 km/h 88% 0 mm
06:02 12.6 °C 10.6 °C 1011.4 hPa North 7.2 km/h 17.2 km/h 88% 0 mm
06:05 12.7 °C 10.7 °C 1011.4 hPa NNE 5 km/h 17.2 km/h 88% 0 mm
06:06 12.7 °C 10.7 °C 1011.4 hPa NNE 5 km/h 17.2 km/h 88% 0 mm
06:07 12.7 °C 10.7 °C 1011.4 hPa NNE 6.1 km/h 17.2 km/h 88% 0 mm
06:08 12.7 °C 10.7 °C 1011.4 hPa North 8.7 km/h 17.2 km/h 88% 0 mm
06:11 12.7 °C 10.7 °C 1011.4 hPa North 1.1 km/h 17.2 km/h 88% 0 mm
06:12 12.7 °C 10.7 °C 1011.4 hPa NNW 8.7 km/h 18.3 km/h 88% 0 mm
06:13 12.7 °C 10.7 °C 1011.4 hPa NNW 2.6 km/h 18.3 km/h 88% 0 mm
06:16 12.7 °C 10.8 °C 1011.4 hPa NNW 6.1 km/h 18.3 km/h 88% 0 mm
06:17 12.7 °C 10.8 °C 1011.4 hPa NNW 6.1 km/h 18.3 km/h 88% 0 mm
06:19 12.7 °C 10.8 °C 1011.4 hPa North 5 km/h 18.3 km/h 88% 0 mm
06:20 12.7 °C 10.8 °C 1011.7 hPa North 2.6 km/h 18.3 km/h 88% 0 mm
06:22 12.7 °C 10.8 °C 1011.4 hPa NNE 3.5 km/h 18.3 km/h 88% 0 mm
06:24 12.7 °C 10.8 °C 1011.7 hPa NNE 5 km/h 12.2 km/h 88% 0 mm
06:26 12.7 °C 10.8 °C 1011.7 hPa NE 6.1 km/h 11.1 km/h 88% 0 mm
06:27 12.7 °C 10.8 °C 1011.4 hPa NE 5 km/h 9.7 km/h 88% 0 mm
06:29 12.7 °C 10.6 °C 1011.4 hPa NE 3.5 km/h 9.7 km/h 87% 0 mm
06:32 12.7 °C 10.8 °C 1011.7 hPa NE 6.1 km/h 11.1 km/h 88% 0 mm
06:33 12.7 °C 10.8 °C 1011.4 hPa NE 5 km/h 11.1 km/h 88% 0 mm
06:34 12.7 °C 10.8 °C 1011.4 hPa NE 7.2 km/h 12.2 km/h 88% 0 mm
06:35 12.7 °C 10.8 °C 1011.7 hPa NE 5 km/h 12.2 km/h 88% 0 mm
06:38 12.7 °C 10.8 °C 1011.7 hPa NE 1.1 km/h 12.2 km/h 88% 0 mm
06:39 12.7 °C 10.8 °C 1011.7 hPa Calm   12.2 km/h 88% 0 mm
06:40 12.7 °C 10.8 °C 1011.7 hPa NNE 6.1 km/h 12.2 km/h 88% 0 mm
06:43 12.8 °C 10.9 °C 1011.7 hPa NNW 3.5 km/h 12.2 km/h 88% 0 mm
06:44 12.8 °C 10.9 °C 1011.7 hPa NNW 5 km/h 11.1 km/h 88% 0 mm
06:45 12.8 °C 10.9 °C 1011.7 hPa NW 3.5 km/h 11.1 km/h 88% 0 mm
06:48 12.8 °C 10.9 °C 1011.7 hPa NW 1.1 km/h 11.1 km/h 88% 0 mm
06:50 12.8 °C 10.9 °C 1011.7 hPa NW 3.5 km/h 9.7 km/h 88% 0 mm
06:51 12.8 °C 10.9 °C 1012.1 hPa NNW 3.5 km/h 7.2 km/h 88% 0 mm
06:54 12.7 °C 10.8 °C 1012.1 hPa NNW 1.1 km/h 7.2 km/h 88% 0 mm
06:55 12.7 °C 10.8 °C 1012.1 hPa NNW 1.1 km/h 6.1 km/h 88% 0 mm
06:56 12.7 °C 10.8 °C 1012.1 hPa NNW 1.1 km/h 6.1 km/h 88% 0 mm
06:57 12.7 °C 10.8 °C 1012.1 hPa Calm   6.1 km/h 88% 0 mm
06:59 12.7 °C 10.8 °C 1012.1 hPa Calm   6.1 km/h 88% 0 mm
07:00 12.7 °C 11 °C 1012.1 hPa Calm   6.1 km/h 89% 0 mm
07:01 12.7 °C 10.9 °C 1012.1 hPa NW 1.1 km/h 6.1 km/h 89% 0 mm
07:02 12.7 °C 10.9 °C 1012.1 hPa NW 3.5 km/h 6.1 km/h 89% 0 mm
07:04 12.7 °C 11.1 °C 1012.1 hPa NNW 2.6 km/h 6.1 km/h 90% 0 mm
07:06 12.7 °C 11.2 °C 1012.4 hPa WNW 7.2 km/h 11.1 km/h 91% 0 mm
07:07 12.7 °C 11.4 °C 1012.8 hPa SSW 7.2 km/h 14.8 km/h 92% 0 mm
07:08 12.7 °C 11.6 °C 1012.8 hPa WSW 6.1 km/h 21.9 km/h 93% 0.25 mm
07:10 12.7 °C 11.7 °C 1012.8 hPa West 8.7 km/h 21.9 km/h 94% 0.25 mm
07:11 12.7 °C 11.9 °C 1012.8 hPa West 9.7 km/h 21.9 km/h 95% 0.25 mm
07:12 12.7 °C 11.9 °C 1012.8 hPa WNW 8.7 km/h 21.9 km/h 95% 0.25 mm
07:14 12.7 °C 12 °C 1012.8 hPa WNW 12.2 km/h 23.3 km/h 96% 0.25 mm
07:15 12.7 °C 12 °C 1012.8 hPa NW 14.8 km/h 23.3 km/h 96% 0.25 mm
07:16 12.6 °C 12.1 °C 1012.8 hPa WNW 19.5 km/h 33.2 km/h 97% 0.25 mm
07:17 12.4 °C 12 °C 1012.8 hPa WNW 17.2 km/h 42.8 km/h 97% 0.25 mm
07:18 12.3 °C 11.9 °C 1012.8 hPa WNW 19.5 km/h 42.8 km/h 97% 0.76 mm
07:19 12.3 °C 11.9 °C 1012.8 hPa WNW 19.5 km/h 42.8 km/h 97% 0.76 mm
07:20 12.2 °C 11.8 °C 1012.8 hPa NW 9.7 km/h 42.8 km/h 97% 0.76 mm
07:21 12.2 °C 11.7 °C 1013.1 hPa NW 7.2 km/h 42.8 km/h 97% 0.76 mm
07:22 12.1 °C 11.8 °C 1012.8 hPa WNW 8.7 km/h 42.8 km/h 98% 0.76 mm
07:23 12.1 °C 11.8 °C 1012.8 hPa WNW 8.7 km/h 42.8 km/h 98% 0.76 mm
07:24 11.9 °C 11.7 °C 1013.1 hPa NW 12.2 km/h 42.8 km/h 98% 0.76 mm
07:25 11.8 °C 11.6 °C 1013.1 hPa NW 8.7 km/h 42.8 km/h 98% 0.76 mm
07:27 11.7 °C 11.3 °C 1013.1 hPa NNW 9.7 km/h 37.8 km/h 98% 0.76 mm
07:28 11.7 °C 11.3 °C 1013.1 hPa NNW 9.7 km/h 37.8 km/h 98% 0.76 mm
07:29 11.7 °C 11.3 °C 1013.1 hPa NNW 12.2 km/h 27 km/h 98% 0.76 mm
07:30 11.6 °C 11.3 °C 1013.1 hPa NNW 9.7 km/h 27 km/h 98% 0.76 mm
07:32 11.6 °C 11.3 °C 1013.1 hPa North 6.1 km/h 27 km/h 98% 0.76 mm
07:33 11.6 °C 11.3 °C 1013.1 hPa North 7.2 km/h 27 km/h 98% 0.76 mm
07:34 11.6 °C 11.3 °C 1013.4 hPa NNW 7.2 km/h 21.9 km/h 98% 0.76 mm
07:35 11.6 °C 11.3 °C 1013.4 hPa NNW 7.2 km/h 21.9 km/h 98% 0.76 mm
07:36 11.6 °C 11.3 °C 1013.1 hPa NNW 5 km/h 21.9 km/h 98% 0.76 mm
07:38 11.4 °C 11 °C 1013.1 hPa NNW 12.2 km/h 20.9 km/h 97% 0.76 mm
07:39 11.4 °C 11 °C 1013.4 hPa NNW 11.1 km/h 20.9 km/h 97% 0.76 mm
07:40 11.4 °C 11 °C 1013.1 hPa NNW 8.7 km/h 20.9 km/h 97% 0.76 mm
07:41 11.4 °C 11 °C 1013.4 hPa NNW 5 km/h 20.9 km/h 97% 0.76 mm
07:43 11.4 °C 11 °C 1013.4 hPa NNW 8.7 km/h 28 km/h 97% 0.76 mm
07:45 11.4 °C 11 °C 1013.4 hPa NNE 11.1 km/h 28 km/h 97% 0.76 mm
07:46 11.4 °C 11 °C 1013.4 hPa NE 7.2 km/h 28 km/h 97% 0.76 mm
07:48 11.4 °C 10.9 °C 1013.4 hPa North 8.7 km/h 28 km/h 97% 0.76 mm
07:50 11.4 °C 10.9 °C 1013.8 hPa South 11.1 km/h 28 km/h 97% 0.76 mm
07:51 11.4 °C 11 °C 1013.8 hPa South 3.5 km/h 23.3 km/h 97% 0.76 mm
07:52 11.4 °C 11 °C 1013.8 hPa South 3.5 km/h 23.3 km/h 97% 0.76 mm
07:53 11.4 °C 11 °C 1013.8 hPa South 6.1 km/h 23.3 km/h 97% 0.76 mm
07:55 11.4 °C 11 °C 1013.8 hPa WSW 7.2 km/h 23.3 km/h 97% 0.76 mm
07:56 11.4 °C 11 °C 1013.8 hPa WSW 5 km/h 23.3 km/h 97% 0.76 mm
07:58 11.4 °C 11 °C 1013.8 hPa WSW 8.7 km/h 23.3 km/h 97% 0.76 mm
07:59 11.4 °C 11 °C 1014.1 hPa WSW 9.7 km/h 23.3 km/h 97% 0.76 mm
08:01 11.4 °C 11 °C 1014.1 hPa West 6.1 km/h 23.3 km/h 97% 0.76 mm
08:02 11.6 °C 11.1 °C 1014.1 hPa NW 6.1 km/h 23.3 km/h 97% 0.76 mm
08:03 11.6 °C 11.1 °C 1014.1 hPa NW 6.1 km/h 23.3 km/h 97% 0.76 mm
08:04 11.4 °C 11 °C 1014.1 hPa NW 3.5 km/h 23.3 km/h 97% 0.76 mm
08:06 11.6 °C 10.9 °C 1014.1 hPa NNW 8.7 km/h 23.3 km/h 96% 0.76 mm
08:07 11.6 °C 10.9 °C 1014.1 hPa West 8.7 km/h 23.3 km/h 96% 0.25 mm
08:08 11.4 °C 10.8 °C 1014.1 hPa West 12.2 km/h 23.3 km/h 96% 0.25 mm
08:09 11.6 °C 10.9 °C 1014.1 hPa WSW 8.7 km/h 21.9 km/h 96% 0.25 mm
08:12 11.6 °C 10.9 °C 1014.1 hPa WNW 7.2 km/h 21.9 km/h 96% 0.25 mm
08:13 11.6 °C 10.9 °C 1014.1 hPa WNW 7.2 km/h 21.9 km/h 96% 0.25 mm
08:14 11.6 °C 10.9 °C 1014.4 hPa West 6.1 km/h 21.9 km/h 96% 0.25 mm
08:17 11.7 °C 11.1 °C 1014.4 hPa West 11.1 km/h 21.9 km/h 96% 0.25 mm
08:18 11.8 °C 11.2 °C 1014.4 hPa West 11.1 km/h 21.9 km/h 96% 0 mm
08:19 11.8 °C 11.2 °C 1014.4 hPa West 11.1 km/h 19.5 km/h 96% 0 mm
08:20 11.8 °C 11.2 °C 1014.4 hPa WNW 6.1 km/h 19.5 km/h 96% 0 mm
08:23 11.8 °C 11.2 °C 1014.8 hPa WNW 8.7 km/h 18.3 km/h 96% 0 mm
08:24 11.8 °C 11.2 °C 1014.4 hPa NW 7.2 km/h 18.3 km/h 96% 0 mm
08:25 11.9 °C 11.2 °C 1014.8 hPa NNW 11.1 km/h 18.3 km/h 95% 0 mm
08:28 12.2 °C 11.2 °C 1014.8 hPa NNW 9.7 km/h 19.5 km/h 94% 0 mm
08:29 12.2 °C 11.2 °C 1014.8 hPa NNW 12.2 km/h 19.5 km/h 94% 0 mm
08:30 12.2 °C 11.1 °C 1014.8 hPa NNW 13.4 km/h 21.9 km/h 93% 0 mm
08:31 12.2 °C 11.1 °C 1014.8 hPa NNW 12.2 km/h 21.9 km/h 93% 0 mm
08:34 12.2 °C 10.9 °C 1014.8 hPa WSW 12.2 km/h 21.9 km/h 92% 0 mm
08:35 12.2 °C 10.9 °C 1014.8 hPa WSW 8.7 km/h 21.9 km/h 92% 0 mm
08:36 12.2 °C 10.9 °C 1014.8 hPa SW 8.7 km/h 23.3 km/h 92% 0 mm
08:37 12.2 °C 10.7 °C 1014.8 hPa SW 14.8 km/h 28 km/h 91% 0 mm
08:39 12.2 °C 10.7 °C 1014.8 hPa SSW 12.2 km/h 28 km/h 91% 0 mm
08:40 12.2 °C 10.6 °C 1014.8 hPa SSW 15.8 km/h 28 km/h 90% 0 mm
08:41 12.2 °C 10.4 °C 1014.8 hPa SW 12.2 km/h 31.7 km/h 89% 0 mm
08:43 12.2 °C 10.5 °C 1014.8 hPa WSW 9.7 km/h 31.7 km/h 89% 0 mm
08:44 12.2 °C 10.7 °C 1014.8 hPa SW 6.1 km/h 31.7 km/h 90% 0 mm
08:45 12.3 °C 10.6 °C 1014.8 hPa SSW 14.8 km/h 31.7 km/h 89% 0 mm
08:46 12.3 °C 10.4 °C 1014.8 hPa SSW 17.2 km/h 34.3 km/h 88% 0 mm
08:48 12.2 °C 10.2 °C 1014.8 hPa SSW 13.4 km/h 37.8 km/h 87% 0 mm
08:49 12.3 °C 10.4 °C 1014.8 hPa SW 8.7 km/h 37.8 km/h 88% 0 mm
08:50 12.3 °C 10.4 °C 1015.1 hPa WSW 9.7 km/h 37.8 km/h 88% 0 mm
08:51 12.3 °C 10.4 °C 1015.1 hPa WSW 9.7 km/h 37.8 km/h 88% 0 mm
08:52 12.3 °C 10.4 °C 1015.1 hPa WSW 9.7 km/h 37.8 km/h 88% 0 mm
08:53 12.3 °C 10.2 °C 1014.8 hPa West 14.8 km/h 37.8 km/h 87% 0 mm
08:55 12.4 °C 10.2 °C 1014.8 hPa WSW 9.7 km/h 37.8 km/h 86% 0 mm
08:56 12.4 °C 10.2 °C 1014.8 hPa WNW 15.8 km/h 37.8 km/h 86% 0 mm
08:57 12.3 °C 9.9 °C 1014.8 hPa West 15.8 km/h 37.8 km/h 85% 0 mm
08:58 12.3 °C 9.7 °C 1014.8 hPa WNW 17.2 km/h 28 km/h 84% 0 mm
09:01 12.3 °C 9.7 °C 1014.8 hPa WNW 19.5 km/h 31.7 km/h 84% 0 mm
09:02 12.3 °C 9.4 °C 1015.1 hPa West 20.9 km/h 33.2 km/h 82% 0 mm
09:03 12.3 °C 9.6 °C 1015.1 hPa West 13.4 km/h 33.2 km/h 83% 0 mm
09:04 12.3 °C 9.6 °C 1015.5 hPa WNW 11.1 km/h 33.2 km/h 83% 0 mm
09:06 12.3 °C 9.6 °C 1015.1 hPa WNW 15.8 km/h 36.7 km/h 83% 0 mm
09:08 12.4 °C 9.7 °C 1015.1 hPa NW 12.2 km/h 36.7 km/h 83% 0 mm
09:09 12.6 °C 9.7 °C 1015.1 hPa NW 8.7 km/h 36.7 km/h 83% 0 mm
09:11 12.6 °C 9.6 °C 1015.5 hPa NW 8.7 km/h 36.7 km/h 82% 0 mm
09:13 12.6 °C 9.6 °C 1015.1 hPa NW 13.4 km/h 36.7 km/h 82% 0 mm
09:14 12.6 °C 9.6 °C 1015.5 hPa WNW 12.2 km/h 36.7 km/h 82% 0 mm
09:16 12.4 °C 9.3 °C 1015.5 hPa West 12.2 km/h 31.7 km/h 81% 0 mm
09:18 12.3 °C 9.2 °C 1015.5 hPa WNW 14.8 km/h 31.7 km/h 81% 0 mm
09:19 12.3 °C 9.2 °C 1015.5 hPa WNW 9.7 km/h 31.7 km/h 81% 0 mm
09:21 12.3 °C 9.2 °C 1015.5 hPa NW 11.1 km/h 31.7 km/h 81% 0 mm
09:22 12.3 °C 9.2 °C 1015.5 hPa NW 11.1 km/h 31.7 km/h 81% 0 mm
09:23 12.3 °C 9.2 °C 1015.5 hPa NW 12.2 km/h 31.7 km/h 81% 0 mm
09:24 12.3 °C 8.8 °C 1015.5 hPa NW 13.4 km/h 31.7 km/h 79% 0 mm
09:25 12.4 °C 8.9 °C 1015.5 hPa NNW 14.8 km/h 31.7 km/h 79% 0 mm
09:27 12.4 °C 8.7 °C 1015.5 hPa NNW 9.7 km/h 27 km/h 78% 0 mm
09:28 12.4 °C 8.7 °C 1015.5 hPa NW 13.4 km/h 27 km/h 78% 0 mm
09:29 12.6 °C 8.8 °C 1015.5 hPa NW 9.7 km/h 27 km/h 78% 0 mm
09:31 12.6 °C 8.8 °C 1015.8 hPa NNW 19.5 km/h 29.5 km/h 78% 0 mm
09:32 12.4 °C 8.6 °C 1015.8 hPa NNW 13.4 km/h 29.5 km/h 77% 0 mm
09:33 12.4 °C 8.6 °C 1015.5 hPa NNW 7.2 km/h 29.5 km/h 77% 0 mm
09:34 12.4 °C 8.7 °C 1015.5 hPa NNW 5 km/h 29.5 km/h 78% 0 mm
09:35 12.4 °C 8.7 °C 1015.5 hPa NNW 5 km/h 29.5 km/h 78% 0 mm
09:37 12.6 °C 8.6 °C 1015.5 hPa NNW 7.2 km/h 29.5 km/h 77% 0 mm
09:38 12.7 °C 8.5 °C 1015.5 hPa NNW 13.4 km/h 29.5 km/h 76% 0 mm
09:39 12.6 °C 8.2 °C 1015.5 hPa North 17.2 km/h 29.5 km/h 75% 0 mm
09:40 12.7 °C 8.3 °C 1015.8 hPa NNW 6.1 km/h 29.5 km/h 75% 0 mm
09:41 12.7 °C 8.3 °C 1015.8 hPa NNW 8.7 km/h 28 km/h 75% 0 mm
09:42 12.7 °C 8.4 °C 1015.5 hPa NW 8.7 km/h 28 km/h 75% 0 mm
09:43 12.7 °C 8.2 °C 1015.5 hPa WNW 15.8 km/h 27 km/h 74% 0 mm
09:44 12.7 °C 7.6 °C 1015.5 hPa NW 14.8 km/h 27 km/h 71% 0 mm
09:45 12.7 °C 7.5 °C 1015.8 hPa WNW 14.8 km/h 27 km/h 71% 0 mm
09:46 12.7 °C 7.5 °C 1015.8 hPa WNW 13.4 km/h 27 km/h 71% 0 mm
09:47 12.7 °C 7.5 °C 1015.8 hPa WNW 14.8 km/h 27 km/h 71% 0 mm
09:48 12.7 °C 7.5 °C 1015.8 hPa WNW 8.7 km/h 27 km/h 71% 0 mm
09:49 12.7 °C 7.5 °C 1015.8 hPa NW 8.7 km/h 27 km/h 71% 0 mm
09:51 12.7 °C 7.6 °C 1015.8 hPa NW 6.1 km/h 27 km/h 71% 0 mm
09:52 12.7 °C 7.4 °C 1015.8 hPa NW 15.8 km/h 27 km/h 70% 0 mm
09:53 12.7 °C 7.4 °C 1015.8 hPa NW 11.1 km/h 27 km/h 70% 0 mm
09:54 12.7 °C 7.6 °C 1015.8 hPa NW 6.1 km/h 27 km/h 71% 0 mm
09:56 12.7 °C 7.4 °C 1015.8 hPa NNW 8.7 km/h 31.7 km/h 70% 0 mm
09:57 12.7 °C 7.4 °C 1015.8 hPa NW 15.8 km/h 31.7 km/h 70% 0 mm
09:58 12.7 °C 7.4 °C 1015.8 hPa NW 15.8 km/h 31.7 km/h 70% 0 mm
10:00 12.8 °C 7.3 °C 1015.8 hPa NW 13.4 km/h 31.7 km/h 69% 0 mm
10:01 12.8 °C 7.5 °C 1015.8 hPa NW 7.2 km/h 31.7 km/h 70% 0 mm
10:03 12.8 °C 7.3 °C 1016.1 hPa NW 7.2 km/h 31.7 km/h 69% 0 mm
10:05 12.7 °C 7.4 °C 1015.8 hPa WNW 11.1 km/h 31.7 km/h 70% 0 mm
10:06 12.7 °C 7.4 °C 1015.8 hPa WNW 12.2 km/h 25.6 km/h 70% 0 mm
10:07 12.8 °C 7.5 °C 1016.1 hPa West 15.8 km/h 25.6 km/h 70% 0 mm
10:08 12.8 °C 7.5 °C 1015.8 hPa WSW 9.7 km/h 24.5 km/h 70% 0 mm
10:11 13.1 °C 7.5 °C 1016.1 hPa West 17.2 km/h 24.5 km/h 69% 0 mm
10:12 13.1 °C 7.5 °C 1016.1 hPa West 17.2 km/h 24.5 km/h 69% 0 mm
10:13 13.1 °C 7.5 °C 1016.1 hPa West 13.4 km/h 24.5 km/h 69% 0 mm
10:16 13.2 °C 7.9 °C 1016.1 hPa West 12.2 km/h 24.5 km/h 70% 0 mm
10:17 13.3 °C 8 °C 1016.1 hPa West 5 km/h 24.5 km/h 70% 0 mm
10:18 13.4 °C 7.8 °C 1016.1 hPa West 8.7 km/h 24.5 km/h 69% 0 mm
10:19 13.4 °C 7.8 °C 1016.1 hPa West 8.7 km/h 24.5 km/h 69% 0 mm
10:22 13.4 °C 7.7 °C 1016.1 hPa South 9.7 km/h 25.6 km/h 68% 0 mm
10:23 13.4 °C 7.7 °C 1016.1 hPa South 12.2 km/h 25.6 km/h 68% 0 mm
10:24 13.3 °C 7.8 °C 1016.1 hPa South 17.2 km/h 27 km/h 69% 0 mm
10:27 13.1 °C 7.6 °C 1016.1 hPa South 11.1 km/h 27 km/h 69% 0 mm
10:28 13.1 °C 7.6 °C 1016.1 hPa South 13.4 km/h 27 km/h 69% 0 mm
10:29 13.1 °C 7.7 °C 1016.1 hPa SSW 7.2 km/h 27 km/h 70% 0 mm
10:32 12.9 °C 7.4 °C 1016.5 hPa SW 12.2 km/h 27 km/h 69% 0 mm
10:33 13.1 °C 7.5 °C 1016.1 hPa WSW 13.4 km/h 27 km/h 69% 0 mm
10:34 13.1 °C 7.5 °C 1016.1 hPa West 6.1 km/h 27 km/h 69% 0 mm
10:35 13.1 °C 7.5 °C 1016.1 hPa West 6.1 km/h 27 km/h 69% 0 mm
10:37 13.1 °C 7.6 °C 1016.1 hPa WNW 12.2 km/h 28 km/h 69% 0 mm
10:38 13.1 °C 7.6 °C 1016.1 hPa WNW 12.2 km/h 28 km/h 69% 0 mm
10:39 13.1 °C 7.6 °C 1016.1 hPa West 14.8 km/h 28 km/h 69% 0 mm
10:42 13.2 °C 7.4 °C 1016.1 hPa WSW 13.4 km/h 28 km/h 68% 0 mm
10:43 13.2 °C 7.4 °C 1016.1 hPa WSW 13.4 km/h 28 km/h 68% 0 mm
10:44 13.2 °C 7.4 °C 1016.1 hPa WSW 9.7 km/h 28 km/h 68% 0 mm
10:45 13.3 °C 7.6 °C 1016.1 hPa WSW 11.1 km/h 28 km/h 68% 0 mm
10:47 13.5 °C 7.5 °C 1016.1 hPa WNW 15.8 km/h 25.6 km/h 67% 0 mm
10:48 13.5 °C 7.1 °C 1016.1 hPa WNW 18.3 km/h 27 km/h 65% 0 mm
10:50 13.4 °C 7.2 °C 1016.1 hPa WNW 15.8 km/h 27 km/h 66% 0 mm
10:52 13.4 °C 7.4 °C 1016.1 hPa WNW 9.7 km/h 27 km/h 67% 0 mm
10:53 13.5 °C 7.5 °C 1016.1 hPa NW 8.7 km/h 27 km/h 67% 0 mm
10:54 13.5 °C 7.5 °C 1016.1 hPa NNW 8.7 km/h 27 km/h 67% 0 mm
10:55 13.6 °C 7.6 °C 1016.1 hPa NNW 7.2 km/h 27 km/h 67% 0 mm
10:56 13.6 °C 7.6 °C 1016.1 hPa NNW 7.2 km/h 27 km/h 67% 0 mm
10:57 13.7 °C 7.5 °C 1016.1 hPa West 15.8 km/h 27 km/h 66% 0 mm
10:59 13.7 °C 7.5 °C 1016.5 hPa NW 13.4 km/h 24.5 km/h 66% 0 mm
11:00 13.7 °C 7.3 °C 1016.5 hPa NW 17.2 km/h 24.5 km/h 65% 0 mm
11:01 13.5 °C 7.3 °C 1016.5 hPa WNW 14.8 km/h 24.5 km/h 66% 0 mm
11:03 13.4 °C 7.2 °C 1016.5 hPa West 13.4 km/h 24.5 km/h 66% 0 mm
11:04 13.2 °C 7.2 °C 1016.5 hPa WSW 14.8 km/h 24.5 km/h 67% 0 mm
11:05 13.2 °C 7.2 °C 1016.5 hPa WSW 12.2 km/h 24.5 km/h 67% 0 mm
11:06 13.2 °C 7.2 °C 1016.5 hPa WSW 13.4 km/h 24.5 km/h 67% 0 mm
11:07 13.2 °C 7 °C 1016.5 hPa SW 12.2 km/h 24.5 km/h 66% 0 mm
11:08 13.2 °C 7 °C 1016.5 hPa SW 12.2 km/h 24.5 km/h 66% 0 mm
11:09 13.3 °C 7.1 °C 1016.5 hPa SW 13.4 km/h 24.5 km/h 66% 0 mm
11:10 13.3 °C 6.9 °C 1016.5 hPa SW 13.4 km/h 24.5 km/h 65% 0 mm
11:12 13.4 °C 7 °C 1016.5 hPa South 8.7 km/h 24.5 km/h 65% 0 mm
11:13 13.5 °C 7.1 °C 1016.5 hPa SSW 5 km/h 23.3 km/h 65% 0 mm
11:14 13.6 °C 6.9 °C 1016.5 hPa SSW 17.2 km/h 25.6 km/h 64% 0 mm
11:15 13.6 °C 6.7 °C 1016.5 hPa SSW 13.4 km/h 25.6 km/h 63% 0 mm
11:16 13.5 °C 6.6 °C 1016.5 hPa SSW 17.2 km/h 25.6 km/h 63% 0 mm
11:17 13.5 °C 6.6 °C 1016.5 hPa SSW 17.2 km/h 25.6 km/h 63% 0 mm
11:19 13.4 °C 7 °C 1016.5 hPa South 7.2 km/h 25.6 km/h 65% 0 mm
11:20 13.4 °C 6.8 °C 1016.5 hPa South 8.7 km/h 25.6 km/h 64% 0 mm
11:21 13.4 °C 6.8 °C 1016.5 hPa SSW 11.1 km/h 25.6 km/h 64% 0 mm
11:22 13.5 °C 7.1 °C 1016.1 hPa SW 6.1 km/h 25.6 km/h 65% 0 mm
11:25 13.7 °C 7.1 °C 1016.5 hPa NW 18.3 km/h 25.6 km/h 64% 0 mm
11:26 13.7 °C 6.8 °C 1016.5 hPa NNW 18.3 km/h 27 km/h 63% 0 mm
11:27 13.5 °C 6.6 °C 1016.5 hPa West 15.8 km/h 27 km/h 63% 0 mm
11:30 13.5 °C 6.8 °C 1016.5 hPa SSW 12.2 km/h 27 km/h 64% 0 mm
11:31 13.4 °C 7 °C 1016.5 hPa SSW 9.7 km/h 27 km/h 65% 0 mm
11:32 13.5 °C 6.8 °C 1016.5 hPa South 9.7 km/h 27 km/h 64% 0 mm
11:33 13.5 °C 6.8 °C 1016.5 hPa South 15.8 km/h 27 km/h 64% 0 mm
11:35 13.5 °C 6.6 °C 1016.5 hPa SSE 11.1 km/h 27 km/h 63% 0 mm
11:36 13.4 °C 6.3 °C 1016.5 hPa South 18.3 km/h 25.6 km/h 62% 0 mm
11:37 13.3 °C 6.2 °C 1016.5 hPa South 12.2 km/h 25.6 km/h 62% 0 mm
11:38 13.3 °C 6.2 °C 1016.5 hPa SSE 11.1 km/h 25.6 km/h 62% 0 mm
11:40 13.3 °C 6.2 °C 1016.5 hPa South 17.2 km/h 27 km/h 62% 0 mm
11:42 13.4 °C 6.3 °C 1016.5 hPa South 14.8 km/h 27 km/h 62% 0 mm
11:44 13.4 °C 6.1 °C 1016.5 hPa South 12.2 km/h 27 km/h 61% 0 mm
11:45 13.4 °C 6.3 °C 1016.8 hPa SSW 8.7 km/h 27 km/h 62% 0 mm
11:47 13.5 °C 5.9 °C 1016.8 hPa South 13.4 km/h 28 km/h 60% 0 mm
11:48 13.5 °C 5.9 °C 1016.8 hPa South 17.2 km/h 28 km/h 60% 0 mm
11:49 13.4 °C 5.6 °C 1016.5 hPa South 17.2 km/h 28 km/h 59% 0 mm
11:50 13.4 °C 5.8 °C 1016.5 hPa South 18.3 km/h 28 km/h 60% 0 mm
11:52 13.4 °C 5.3 °C 1016.5 hPa SSW 14.8 km/h 28 km/h 58% 0 mm
11:53 13.5 °C 5.4 °C 1016.5 hPa SSW 12.2 km/h 28 km/h 58% 0 mm
11:54 13.4 °C 5.6 °C 1016.5 hPa SSW 12.2 km/h 28 km/h 59% 0 mm
11:55 13.5 °C 5.9 °C 1016.5 hPa SSW 9.7 km/h 28 km/h 60% 0 mm
11:56 13.5 °C 5.9 °C 1016.5 hPa SSW 9.7 km/h 28 km/h 60% 0 mm
11:57 13.6 °C 5.5 °C 1016.5 hPa SSW 11.1 km/h 28 km/h 58% 0 mm
11:58 13.6 °C 5.5 °C 1016.5 hPa SSW 8.7 km/h 28 km/h 58% 0 mm
12:00 13.7 °C 5.3 °C 1016.5 hPa WSW 12.2 km/h 28 km/h 57% 0 mm
12:01 13.8 °C 5.2 °C 1016.5 hPa West 8.7 km/h 24.5 km/h 56% 0 mm
12:02 13.8 °C 5.2 °C 1016.5 hPa West 8.7 km/h 24.5 km/h 56% 0 mm
12:03 13.9 °C 4.8 °C 1016.5 hPa West 11.1 km/h 23.3 km/h 54% 0 mm
12:05 14 °C 4.1 °C 1016.5 hPa WSW 11.1 km/h 21.9 km/h 51% 0 mm
12:06 14 °C 4.1 °C 1016.5 hPa WSW 11.1 km/h 21.9 km/h 51% 0 mm
12:07 14 °C 4.6 °C 1016.5 hPa SW 6.1 km/h 21.9 km/h 53% 0 mm
12:08 14.1 °C 4.7 °C 1016.5 hPa SW 9.7 km/h 21.9 km/h 53% 0 mm
12:09 14.1 °C 4.1 °C 1016.5 hPa SW 12.2 km/h 21.9 km/h 51% 0 mm
12:11 14.2 °C 4.8 °C 1016.5 hPa SSW 6.1 km/h 21.9 km/h 53% 0 mm
12:12 14.3 °C 3.7 °C 1016.5 hPa South 17.2 km/h 28 km/h 49% 0 mm
12:13 14.3 °C 4.3 °C 1016.5 hPa South 15.8 km/h 28 km/h 51% 0 mm
12:14 14.3 °C 4.3 °C 1016.5 hPa SSW 15.8 km/h 28 km/h 51% 0 mm
12:16 14.2 °C 4.5 °C 1016.5 hPa NW 12.2 km/h 28 km/h 52% 0 mm
12:17 14.2 °C 4.2 °C 1016.5 hPa WNW 8.7 km/h 28 km/h 51% 0 mm
12:18 14.2 °C 4.2 °C 1016.5 hPa WNW 8.7 km/h 28 km/h 51% 0 mm
12:19 14.1 °C 4.4 °C 1016.5 hPa NW 3.5 km/h 28 km/h 52% 0 mm
12:20 14.2 °C 4.5 °C 1016.5 hPa NW 15.8 km/h 28 km/h 52% 0 mm
12:22 14.2 °C 4.2 °C 1016.5 hPa NW 17.2 km/h 28 km/h 51% 0 mm
12:23 14.2 °C 4.5 °C 1016.5 hPa NW 12.2 km/h 28 km/h 52% 0 mm
12:24 14.1 °C 4.1 °C 1016.5 hPa WNW 20.9 km/h 28 km/h 51% 0 mm
12:26 14.1 °C 4.4 °C 1016.5 hPa WNW 14.8 km/h 28 km/h 52% 0 mm
12:27 14.2 °C 4.5 °C 1016.5 hPa WSW 14.8 km/h 30.6 km/h 52% 0 mm
12:28 14.2 °C 4.5 °C 1016.5 hPa SW 14.8 km/h 30.6 km/h 52% 0 mm
12:29 14.2 °C 4.5 °C 1016.1 hPa SSW 17.2 km/h 30.6 km/h 52% 0 mm
12:31 14.1 °C 4.7 °C 1016.5 hPa SW 17.2 km/h 30.6 km/h 53% 0 mm
12:32 14.1 °C 4.9 °C 1016.1 hPa SW 14.8 km/h 30.6 km/h 54% 0 mm
12:33 14.1 °C 4.9 °C 1016.1 hPa SW 14.8 km/h 30.6 km/h 54% 0 mm
12:34 14.1 °C 4.9 °C 1016.5 hPa SW 15.8 km/h 30.6 km/h 54% 0 mm
12:35 14.1 °C 4.7 °C 1016.1 hPa SW 13.4 km/h 30.6 km/h 53% 0 mm
12:36 14.2 °C 4.8 °C 1016.1 hPa SSW 8.7 km/h 30.6 km/h 53% 0 mm
12:38 14.2 °C 5.1 °C 1016.1 hPa SSW 12.2 km/h 28 km/h 54% 0 mm
12:39 14.3 °C 5.1 °C 1016.1 hPa SSW 12.2 km/h 28 km/h 54% 0 mm
12:40 14.3 °C 5.1 °C 1016.1 hPa SSW 12.2 km/h 28 km/h 54% 0 mm
12:41 14.4 °C 5.2 °C 1016.1 hPa SSW 11.1 km/h 28 km/h 54% 0 mm
12:43 14.5 °C 5.1 °C 1016.1 hPa South 12.2 km/h 27 km/h 53% 0 mm
12:44 14.5 °C 5.1 °C 1016.1 hPa South 12.2 km/h 27 km/h 53% 0 mm
12:45 14.5 °C 4.8 °C 1016.1 hPa South 14.8 km/h 27 km/h 52% 0 mm
12:46 14.5 °C 5.1 °C 1016.1 hPa South 13.4 km/h 27 km/h 53% 0 mm
12:49 14.6 °C 4.6 °C 1016.1 hPa South 15.8 km/h 27 km/h 51% 0 mm
12:51 14.6 °C 4.8 °C 1016.1 hPa South 9.7 km/h 27 km/h 52% 0 mm
12:52 14.6 °C 4.6 °C 1016.1 hPa South 11.1 km/h 27 km/h 51% 0 mm
12:54 14.6 °C 4.6 °C 1016.1 hPa South 17.2 km/h 24.5 km/h 51% 0 mm
12:55 14.6 °C 4.6 °C 1016.1 hPa South 9.7 km/h 23.3 km/h 51% 0 mm
12:57 14.6 °C 4.3 °C 1016.1 hPa South 20.9 km/h 33.2 km/h 50% 0 mm
12:58 14.5 °C 4.5 °C 1016.1 hPa South 14.8 km/h 33.2 km/h 51% 0 mm
13:00 14.5 °C 4.5 °C 1016.1 hPa South 8.7 km/h 33.2 km/h 51% 0 mm
13:01 14.5 °C 4.8 °C 1016.1 hPa South 13.4 km/h 33.2 km/h 52% 0 mm
13:02 14.6 °C 4.3 °C 1016.1 hPa SSW 13.4 km/h 33.2 km/h 50% 0 mm
13:03 14.6 °C 4.3 °C 1016.1 hPa SSW 13.4 km/h 33.2 km/h 50% 0 mm
13:06 14.5 °C 4.2 °C 1016.1 hPa South 8.7 km/h 33.2 km/h 50% 0 mm
13:08 14.6 °C 5.1 °C 1016.1 hPa South 11.1 km/h 24.5 km/h 53% 0 mm
13:09 14.7 °C 4.9 °C 1016.1 hPa SSW 11.1 km/h 24.5 km/h 52% 0 mm
13:11 14.6 °C 4.6 °C 1016.1 hPa SSW 9.7 km/h 24.5 km/h 51% 0 mm
13:13 14.6 °C 4.8 °C 1016.1 hPa SSE 14.8 km/h 25.6 km/h 52% 0 mm
13:14 14.6 °C 4.8 °C 1016.1 hPa NE 13.4 km/h 25.6 km/h 52% 0 mm
13:16 14.5 °C 5.1 °C 1016.1 hPa North 8.7 km/h 27 km/h 53% 0 mm
13:17 14.5 °C 5.1 °C 1016.1 hPa North 8.7 km/h 27 km/h 53% 0 mm
13:18 14.6 °C 5.1 °C 1016.1 hPa North 12.2 km/h 27 km/h 53% 0 mm
13:20 14.7 °C 5.2 °C 1016.1 hPa South 8.7 km/h 27 km/h 53% 0 mm
13:22 14.8 °C 4.8 °C 1016.5 hPa South 17.2 km/h 29.5 km/h 51% 0 mm
13:23 14.7 °C 4.7 °C 1016.1 hPa South 9.7 km/h 29.5 km/h 51% 0 mm
13:24 14.7 °C 4.7 °C 1016.1 hPa South 9.7 km/h 29.5 km/h 51% 0 mm
13:25 14.6 °C 4.3 °C 1016.5 hPa SSW 11.1 km/h 29.5 km/h 50% 0 mm
13:27 14.6 °C 4.6 °C 1016.1 hPa SSW 9.7 km/h 29.5 km/h 51% 0 mm
13:28 14.6 °C 4.6 °C 1016.1 hPa SSW 9.7 km/h 29.5 km/h 51% 0 mm
13:29 14.6 °C 5.1 °C 1016.1 hPa SSW 13.4 km/h 29.5 km/h 53% 0 mm
13:30 14.6 °C 4.8 °C 1016.5 hPa SSW 12.2 km/h 29.5 km/h 52% 0 mm
13:31 14.6 °C 4.8 °C 1016.1 hPa SW 9.7 km/h 29.5 km/h 52% 0 mm
13:33 14.6 °C 4.8 °C 1016.1 hPa SW 11.1 km/h 20.9 km/h 52% 0 mm
13:34 14.6 °C 5.1 °C 1016.1 hPa SW 13.4 km/h 20.9 km/h 53% 0 mm
13:35 14.6 °C 5.1 °C 1016.1 hPa SSW 9.7 km/h 21.9 km/h 53% 0 mm
13:37 14.7 °C 4.9 °C 1016.1 hPa SSW 13.4 km/h 28 km/h 52% 0 mm
13:38 14.7 °C 4.9 °C 1016.1 hPa SW 11.1 km/h 28 km/h 52% 0 mm
13:39 14.7 °C 4.9 °C 1016.1 hPa SW 12.2 km/h 28 km/h 52% 0 mm
13:40 14.8 °C 5.3 °C 1016.5 hPa SSW 6.1 km/h 28 km/h 53% 0 mm
13:41 14.8 °C 5.1 °C 1016.1 hPa SSW 5 km/h 28 km/h 52% 0 mm
13:43 14.9 °C 5.1 °C 1016.5 hPa SW 12.2 km/h 28 km/h 52% 0 mm
13:44 15 °C 4.9 °C 1016.1 hPa SSW 15.8 km/h 28 km/h 51% 0 mm
13:45 15 °C 5.2 °C 1016.5 hPa SW 9.7 km/h 28 km/h 52% 0 mm
13:46 15 °C 5.2 °C 1016.1 hPa SW 15.8 km/h 27 km/h 52% 0 mm
13:49 15 °C 5.2 °C 1016.1 hPa South 5 km/h 27 km/h 52% 0 mm
13:50 15 °C 5.2 °C 1016.1 hPa South 6.1 km/h 27 km/h 52% 0 mm
13:51 15 °C 5.2 °C 1016.5 hPa South 6.1 km/h 27 km/h 52% 0 mm
13:52 15 °C 5.5 °C 1016.5 hPa SSE 7.2 km/h 27 km/h 53% 0 mm
13:54 15 °C 5.2 °C 1016.5 hPa SSE 14.8 km/h 27 km/h 52% 0 mm
13:56 15 °C 5.2 °C 1016.5 hPa SSE 9.7 km/h 25.6 km/h 52% 0 mm
13:57 15 °C 5.2 °C 1016.5 hPa SSE 8.7 km/h 21.9 km/h 52% 0 mm
14:00 15 °C 5.2 °C 1016.1 hPa SSE 13.4 km/h 21.9 km/h 52% 0 mm
14:01 15 °C 5.5 °C 1016.5 hPa SSE 9.7 km/h 21.9 km/h 53% 0 mm
14:02 15 °C 5.5 °C 1016.1 hPa South 12.2 km/h 21.9 km/h 53% 0 mm
14:06 15 °C 5.2 °C 1016.1 hPa South 11.1 km/h 23.3 km/h 52% 0 mm
14:07 15 °C 5.2 °C 1016.1 hPa South 13.4 km/h 23.3 km/h 52% 0 mm
14:08 15 °C 5.2 °C 1016.1 hPa South 12.2 km/h 23.3 km/h 52% 0 mm
14:11 15 °C 5.2 °C 1016.1 hPa South 8.7 km/h 23.3 km/h 52% 0 mm
14:12 15 °C 5.2 °C 1016.1 hPa South 13.4 km/h 23.3 km/h 52% 0 mm
14:13 15 °C 5.2 °C 1016.5 hPa South 12.2 km/h 23.3 km/h 52% 0 mm
14:14 14.9 °C 5.1 °C 1016.1 hPa SSE 8.7 km/h 23.3 km/h 52% 0 mm
14:16 14.9 °C 5.4 °C 1016.1 hPa South 9.7 km/h 23.3 km/h 53% 0 mm
14:17 15 °C 5.5 °C 1016.1 hPa South 15.8 km/h 24.5 km/h 53% 0 mm
14:18 15 °C 5.5 °C 1016.1 hPa South 15.8 km/h 24.5 km/h 53% 0 mm
14:20 14.9 °C 5.4 °C 1016.1 hPa SSW 9.7 km/h 24.5 km/h 53% 0 mm
14:21 14.9 °C 5.4 °C 1016.1 hPa WNW 17.2 km/h 27 km/h 53% 0 mm
14:22 14.9 °C 5.4 °C 1016.1 hPa NW 14.8 km/h 30.6 km/h 53% 0 mm
14:23 14.9 °C 5.4 °C 1016.1 hPa WNW 14.8 km/h 30.6 km/h 53% 0 mm
14:25 14.9 °C 5.4 °C 1016.1 hPa WNW 11.1 km/h 30.6 km/h 53% 0 mm
14:26 14.9 °C 5.7 °C 1016.1 hPa WNW 8.7 km/h 30.6 km/h 54% 0 mm
14:28 14.9 °C 5.7 °C 1016.1 hPa WNW 11.1 km/h 30.6 km/h 54% 0 mm
14:29 14.9 °C 5.7 °C 1016.1 hPa NW 6.1 km/h 30.6 km/h 54% 0 mm
14:30 15 °C 5.8 °C 1016.1 hPa SW 11.1 km/h 30.6 km/h 54% 0 mm
14:32 15 °C 5.8 °C 1016.1 hPa SSW 13.4 km/h 30.6 km/h 54% 0 mm
14:33 15.1 °C 5.8 °C 1016.1 hPa SSW 8.7 km/h 23.3 km/h 54% 0 mm
14:34 15.1 °C 6.1 °C 1016.1 hPa South 9.7 km/h 21.9 km/h 55% 0 mm
14:36 15.2 °C 5.9 °C 1016.1 hPa South 11.1 km/h 20.9 km/h 54% 0 mm
14:37 15.1 °C 5.8 °C 1016.5 hPa South 7.2 km/h 20.9 km/h 54% 0 mm
14:38 15.2 °C 6.2 °C 1016.1 hPa South 9.7 km/h 20.9 km/h 55% 0 mm
14:39 15.2 °C 6.2 °C 1016.1 hPa South 9.7 km/h 20.9 km/h 55% 0 mm
14:40 15.2 °C 5.7 °C 1016.1 hPa SSW 13.4 km/h 20.9 km/h 53% 0 mm
14:41 15.2 °C 5.7 °C 1016.1 hPa SW 6.1 km/h 20.9 km/h 53% 0 mm
14:42 15.2 °C 5.4 °C 1016.1 hPa NW 13.4 km/h 20.9 km/h 52% 0 mm
14:44 15.2 °C 5.7 °C 1016.5 hPa NW 11.1 km/h 20.9 km/h 53% 0 mm
14:45 15.2 °C 5.4 °C 1016.1 hPa NW 14.8 km/h 21.9 km/h 52% 0 mm
14:46 15.2 °C 5.4 °C 1016.1 hPa NW 14.8 km/h 23.3 km/h 52% 0 mm
14:47 15.1 °C 5.3 °C 1016.5 hPa NW 9.7 km/h 23.3 km/h 52% 0 mm
14:49 15.1 °C 5.8 °C 1016.5 hPa WNW 14.8 km/h 25.6 km/h 54% 0 mm
14:51 15.1 °C 5.8 °C 1016.5 hPa SW 9.7 km/h 25.6 km/h 54% 0 mm
14:52 15.1 °C 5.8 °C 1016.5 hPa SSW 18.3 km/h 29.5 km/h 54% 0 mm
14:53 15 °C 5.8 °C 1016.5 hPa ESE 13.4 km/h 29.5 km/h 54% 0 mm
14:54 15 °C 5.8 °C 1016.8 hPa SSE 11.1 km/h 29.5 km/h 54% 0 mm
14:56 14.9 °C 5.9 °C 1016.5 hPa SSE 9.7 km/h 29.5 km/h 55% 0 mm
14:57 14.8 °C 5.8 °C 1016.5 hPa South 13.4 km/h 29.5 km/h 55% 0 mm
14:59 14.8 °C 5.8 °C 1016.8 hPa South 11.1 km/h 29.5 km/h 55% 0 mm
15:00 14.8 °C 5.8 °C 1016.5 hPa SW 8.7 km/h 29.5 km/h 55% 0 mm
15:01 14.8 °C 5.8 °C 1016.5 hPa SW 6.1 km/h 29.5 km/h 55% 0 mm
15:02 14.7 °C 5.8 °C 1016.5 hPa SSW 9.7 km/h 19.5 km/h 55% 0 mm
15:04 14.7 °C 5.8 °C 1016.8 hPa South 8.7 km/h 21.9 km/h 55% 0 mm
15:06 14.7 °C 5.8 °C 1016.8 hPa South 9.7 km/h 21.9 km/h 55% 0 mm
15:07 14.7 °C 5.5 °C 1016.8 hPa South 11.1 km/h 21.9 km/h 54% 0 mm
15:08 14.7 °C 5.5 °C 1016.8 hPa South 11.1 km/h 21.9 km/h 54% 0 mm
15:09 14.6 °C 5.4 °C 1016.5 hPa SSE 9.7 km/h 21.9 km/h 54% 0 mm
15:10 14.6 °C 5.7 °C 1016.5 hPa SSE 8.7 km/h 21.9 km/h 55% 0 mm
15:11 14.7 °C 5.8 °C 1016.8 hPa SSE 3.5 km/h 21.9 km/h 55% 0 mm
15:12 14.7 °C 5.5 °C 1016.8 hPa SSE 12.2 km/h 21.9 km/h 54% 0 mm
15:13 14.7 °C 5.5 °C 1016.5 hPa SSE 7.2 km/h 21.9 km/h 54% 0 mm
15:15 14.7 °C 5.5 °C 1016.5 hPa SSE 12.2 km/h 20.9 km/h 54% 0 mm
15:17 14.7 °C 5.2 °C 1016.5 hPa SSE 7.2 km/h 19.5 km/h 53% 0 mm
15:18 14.7 °C 5.2 °C 1016.5 hPa SSE 12.2 km/h 19.5 km/h 53% 0 mm
15:20 14.7 °C 5.2 °C 1016.8 hPa South 8.7 km/h 19.5 km/h 53% 0 mm
15:22 14.7 °C 5.5 °C 1016.8 hPa SSE 9.7 km/h 19.5 km/h 54% 0 mm
15:23 14.7 °C 5.5 °C 1016.8 hPa SSE 12.2 km/h 21.9 km/h 54% 0 mm
15:25 14.7 °C 5.2 °C 1016.8 hPa South 12.2 km/h 23.3 km/h 53% 0 mm
15:27 14.7 °C 5.5 °C 1016.8 hPa South 12.2 km/h 23.3 km/h 54% 0 mm
15:28 14.7 °C 5.5 °C 1016.8 hPa South 12.2 km/h 23.3 km/h 54% 0 mm
15:29 14.7 °C 5.5 °C 1016.8 hPa South 8.7 km/h 23.3 km/h 54% 0 mm
15:30 14.7 °C 5.5 °C 1016.8 hPa South 8.7 km/h 23.3 km/h 54% 0 mm
15:32 14.7 °C 5.2 °C 1016.8 hPa South 11.1 km/h 23.3 km/h 53% 0 mm
15:33 14.7 °C 5.2 °C 1016.5 hPa South 9.7 km/h 23.3 km/h 53% 0 mm
15:34 14.7 °C 5.2 °C 1016.8 hPa South 6.1 km/h 18.3 km/h 53% 0 mm
15:35 14.7 °C 5.2 °C 1016.8 hPa South 12.2 km/h 18.3 km/h 53% 0 mm
15:38 14.7 °C 4.9 °C 1016.8 hPa SSE 7.2 km/h 17.2 km/h 52% 0 mm
15:39 14.7 °C 4.9 °C 1016.8 hPa South 9.7 km/h 17.2 km/h 52% 0 mm
15:40 14.6 °C 4.8 °C 1016.8 hPa South 6.1 km/h 17.2 km/h 52% 0 mm
15:43 14.5 °C 5.1 °C 1016.8 hPa SE 12.2 km/h 19.5 km/h 53% 0 mm
15:44 14.5 °C 5.1 °C 1016.8 hPa SE 11.1 km/h 19.5 km/h 53% 0 mm
15:45 14.4 °C 4.9 °C 1016.8 hPa SSE 9.7 km/h 21.9 km/h 53% 0 mm
15:48 14.4 °C 5.2 °C 1016.8 hPa SSE 6.1 km/h 21.9 km/h 54% 0 mm
15:49 14.4 °C 5.2 °C 1016.8 hPa SSE 9.7 km/h 21.9 km/h 54% 0 mm
15:50 14.4 °C 5.2 °C 1016.8 hPa SSE 12.2 km/h 21.9 km/h 54% 0 mm
15:51 14.4 °C 5.2 °C 1016.8 hPa SSE 9.7 km/h 21.9 km/h 54% 0 mm
www.araratweather.com - Email: contact at araratweather.com
Data created with Cumulus & bmak
Click here to send mail.


ABOUT

Live weather data from Ararat, Victoria, Australia, 3377
Data uploaded from Cumulus every 5 minutes to Weather Underground.
This site then downloads the raw data for formatting and display.
Metric and imperial data can be displayed. Graphs and historical data available.
Includes Sun and Moon times and rain image live from BOM.

Check out Ararat Weather on Facebook, Twitter and Google +

Help support ongoing costs by checking out the ads





Follow @AraratWeather